BEIDOU-3 M17 (C36)

Last updated on Jan. 19, 2020, 4:38 a.m. UTC

1 43706U 18093A   20018.28156235  .00000014  00000-0  00000-0 0  9999
2 43706  54.7279 262.1523 0009082 271.4226 190.8989  1.86231858  7913
UTC
Height (km)
Latitude
Longitude
Inclination
Orbital Period
UTC large
Height (km)
Speed (km/s)
/
Latitude / Longitude
Inclination (degrees)
Orbital Period (minutes)
Azimuth
Elevation
Range (km)
Doppler Factor
iOS Compass Heading
iOS Angle

Next 30 passes for location: Hong Kong

Rise time Rise Azimuth (degrees) Set time Set Azimuth (degrees) Duration Max altitude (degrees)

No matching passes for this satellites